owner,sensor,date,latitude,longitude,vertical_datum,sea_water_practical_salinity,qcFlag 
NERRS,ioos:station:NOAA.NERRS:apaebwq:1,2017-08-08T12:45:00Z,29.7858,-84.8752,17.95,5.7,1111122 
NERRS,ioos:station:NOAA.NERRS:apaebwq:1,2017-08-08T13:45:00Z,29.7858,-84.8752,16.18,6.0,1111122 
NERRS,ioos:station:NOAA.NERRS:apaebwq:1,2017-08-08T14:45:00Z,29.7858,-84.8752,37.95,6.0,1111122 
NERRS,ioos:station:NOAA.NERRS:apaebwq:1,2017-08-08T15:45:00Z,29.7858,-84.8752,19.45,6.2,1111122 
NERRS,ioos:station:NOAA.NERRS:apaebwq:1,2017-08-08T16:45:00Z,29.7858,-84.8752,24.08,6.2,1111122 
NERRS,ioos:station:NOAA.NERRS:apaebwq:1,2017-08-08T17:45:00Z,29.7858,-84.8752,18.55,6.1,1111122 
NERRS,ioos:station:NOAA.NERRS:apaebwq:1,2017-08-08T18:45:00Z,29.7858,-84.8752,10.52,5.5,1111122 
NERRS,ioos:station:NOAA.NERRS:apaebwq:1,2017-08-08T19:45:00Z,29.7858,-84.8752,13.56,5.7,1111122 
NERRS,ioos:station:NOAA.NERRS:apaebwq:1,2017-08-08T20:45:00Z,29.7858,-84.8752,12.33,5.7,1111122 
NERRS,ioos:station:NOAA.NERRS:apaebwq:1,2017-08-08T21:45:00Z,29.7858,-84.8752,16.55,5.7,1111122 
NERRS,ioos:station:NOAA.NERRS:apaebwq:1,2017-08-08T22:45:00Z,29.7858,-84.8752,13.11,5.8,1111122 
NERRS,ioos:station:NOAA.NERRS:apaebwq:1,2017-08-08T23:45:00Z,29.7858,-84.8752,18.85,5.3,1111122 
NERRS,ioos:station:NOAA.NERRS:apaebwq:1,2017-08-09T00:45:00Z,29.7858,-84.8752,11.22,4.5,1111122 
NERRS,ioos:station:NOAA.NERRS:apaebwq:1,2017-08-09T01:45:00Z,29.7858,-84.8752,9.91,4.0,1111122 
NERRS,ioos:station:NOAA.NERRS:apaebwq:1,2017-08-09T02:45:00Z,29.7858,-84.8752,6.11,3.6,1111122 
NERRS,ioos:station:NOAA.NERRS:apaebwq:1,2017-08-09T03:45:00Z,29.7858,-84.8752,5.33,3.3,1111122 
NERRS,ioos:station:NOAA.NERRS:apaebwq:1,2017-08-09T04:45:00Z,29.7858,-84.8752,11.5,5.0,1111122 
NERRS,ioos:station:NOAA.NERRS:apaebwq:1,2017-08-09T05:45:00Z,29.7858,-84.8752,9.46,4.4,1111122 
NERRS,ioos:station:NOAA.NERRS:apaebwq:1,2017-08-09T06:45:00Z,29.7858,-84.8752,7.55,4.2,1111122 
NERRS,ioos:station:NOAA.NERRS:apaebwq:1,2017-08-09T07:45:00Z,29.7858,-84.8752,8.21,4.4,1111122 
NERRS,ioos:station:NOAA.NERRS:apaebwq:1,2017-08-09T08:45:00Z,29.7858,-84.8752,9.01,4.7,1111122 
NERRS,ioos:station:NOAA.NERRS:apaebwq:1,2017-08-09T09:45:00Z,29.7858,-84.8752,9.76,4.9,1111122 
NERRS,ioos:station:NOAA.NERRS:apaebwq:1,2017-08-09T10:45:00Z,29.7858,-84.8752,10.1,5.3,1111122 
NERRS,ioos:station:NOAA.NERRS:apaebwq:1,2017-08-09T11:45:00Z,29.7858,-84.8752,8.88,5.1,1111122 
NERRS,ioos:station:NOAA.NERRS:apaebwq:1,2017-08-09T12:45:00Z,29.7858,-84.8752,10.14,4.6,1111122 
NERRS,ioos:station:NOAA.NERRS:apaebwq:1,2017-08-09T13:45:00Z,29.7858,-84.8752,8.82,4.0,1111122 
NERRS,ioos:station:NOAA.NERRS:apaebwq:1,2017-08-09T14:45:00Z,29.7858,-84.8752,14.77,5.1,1111122 
NERRS,ioos:station:NOAA.NERRS:apaebwq:1,2017-08-09T15:45:00Z,29.7858,-84.8752,11.04,5.2,1111122 
NERRS,ioos:station:NOAA.NERRS:apaebwq:1,2017-08-09T22:45:00Z,29.7858,-84.8752,12.28,4.9,1111122 
NERRS,ioos:station:NOAA.NERRS:apaebwq:1,2017-08-09T23:45:00Z,29.7858,-84.8752,7.6,4.1,1111122 
NERRS,ioos:station:NOAA.NERRS:apaebwq:1,2017-08-10T00:45:00Z,29.7858,-84.8752,9.61,3.8,1111122 
NERRS,ioos:station:NOAA.NERRS:apaebwq:1,2017-08-10T01:45:00Z,29.7858,-84.8752,8.3,3.3,1111122 
NERRS,ioos:station:NOAA.NERRS:apaebwq:1,2017-08-10T02:45:00Z,29.7858,-84.8752,6.59,3.1,1111122 
NERRS,ioos:station:NOAA.NERRS:apaebwq:1,2017-08-10T03:45:00Z,29.7858,-84.8752,7.16,2.6,1111122 
NERRS,ioos:station:NOAA.NERRS:apaebwq:1,2017-08-10T04:45:00Z,29.7858,-84.8752,5.38,2.6,1111122 
NERRS,ioos:station:NOAA.NERRS:apaebwq:1,2017-08-10T05:45:00Z,29.7858,-84.8752,5.64,2.6,1111122 
NERRS,ioos:station:NOAA.NERRS:apaebwq:1,2017-08-10T06:45:00Z,29.7858,-84.8752,9.2,3.0,1111122 
NERRS,ioos:station:NOAA.NERRS:apaebwq:1,2017-08-10T07:45:00Z,29.7858,-84.8752,8.9,3.2,1111122 
NERRS,ioos:station:NOAA.NERRS:apaebwq:1,2017-08-10T08:45:00Z,29.7858,-84.8752,7.8,4.1,1111122 
NERRS,ioos:station:NOAA.NERRS:apaebwq:1,2017-08-10T09:45:00Z,29.7858,-84.8752,9.42,4.6,1111122 
NERRS,ioos:station:NOAA.NERRS:apaebwq:1,2017-08-10T10:45:00Z,29.7858,-84.8752,14.44,5.5,1111122 
NERRS,ioos:station:NOAA.NERRS:apaebwq:1,2017-08-10T11:45:00Z,29.7858,-84.8752,13.32,5.8,1111122 
NERRS,ioos:station:NOAA.NERRS:apaebwq:1,2017-08-10T12:45:00Z,29.7858,-84.8752,17.49,5.9,1111122 
NERRS,ioos:station:NOAA.NERRS:apaebwq:1,2017-08-10T13:45:00Z,29.7858,-84.8752,2.13,3.3,1111122 
NERRS,ioos:station:NOAA.NERRS:apaebwq:1,2017-08-10T14:45:00Z,29.7858,-84.8752,2.07,3.4,1111122 
NERRS,ioos:station:NOAA.NERRS:apaebwq:1,2017-08-10T15:45:00Z,29.7858,-84.8752,2.05,4.1,1111122 
NERRS,ioos:station:NOAA.NERRS:apaebwq:1,2017-08-10T16:45:00Z,29.7858,-84.8752,2.05,4.9,1111122 
NERRS,ioos:station:NOAA.NERRS:apaebwq:1,2017-08-10T17:45:00Z,29.7858,-84.8752,2.1,6.1,1111122 
NERRS,ioos:station:NOAA.NERRS:apaebwq:1,2017-08-10T18:45:00Z,29.7858,-84.8752,2.21,7.2,1111122 
NERRS,ioos:station:NOAA.NERRS:apaebwq:1,2017-08-10T19:45:00Z,29.7858,-84.8752,2.31,7.5,1111122 
NERRS,ioos:station:NOAA.NERRS:apaebwq:1,2017-08-10T20:45:00Z,29.7858,-84.8752,2.36,7.8,1111122 
NERRS,ioos:station:NOAA.NERRS:apaebwq:1,2017-08-10T21:45:00Z,29.7858,-84.8752,2.36,8.7,1111122 
NERRS,ioos:station:NOAA.NERRS:apaebwq:1,2017-08-10T22:45:00Z,29.7858,-84.8752,2.31,8.8,1111122 
NERRS,ioos:station:NOAA.NERRS:apaebwq:1,2017-08-10T23:45:00Z,29.7858,-84.8752,2.21,8.8,1111122 
NERRS,ioos:station:NOAA.NERRS:apaebwq:1,2017-08-11T00:45:00Z,29.7858,-84.8752,2.09,8.8,1111122 
NERRS,ioos:station:NOAA.NERRS:apaebwq:1,2017-08-11T01:45:00Z,29.7858,-84.8752,1.99,8.8,1111122 
NERRS,ioos:station:NOAA.NERRS:apaebwq:1,2017-08-11T02:45:00Z,29.7858,-84.8752,1.89,8.9,1111122 
NERRS,ioos:station:NOAA.NERRS:apaebwq:1,2017-08-11T03:45:00Z,29.7858,-84.8752,1.8,9.0,1111122 
NERRS,ioos:station:NOAA.NERRS:apaebwq:1,2017-08-11T04:45:00Z,29.7858,-84.8752,1.76,9.1,1111122 
NERRS,ioos:station:NOAA.NERRS:apaebwq:1,2017-08-11T06:45:00Z,29.7858,-84.8752,1.85,8.9,1111122 
NERRS,ioos:station:NOAA.NERRS:apaebwq:1,2017-08-11T07:45:00Z,29.7858,-84.8752,1.99,8.7,1111122 
NERRS,ioos:station:NOAA.NERRS:apaebwq:1,2017-08-11T08:45:00Z,29.7858,-84.8752,2.14,8.8,1111122 
NERRS,ioos:station:NOAA.NERRS:apaebwq:1,2017-08-11T09:45:00Z,29.7858,-84.8752,2.24,8.9,1111122 
NERRS,ioos:station:NOAA.NERRS:apaebwq:1,2017-08-11T10:45:00Z,29.7858,-84.8752,2.25,9.3,1111122 
NERRS,ioos:station:NOAA.NERRS:apaebwq:1,2017-08-11T11:45:00Z,29.7858,-84.8752,2.24,9.1,1111122 
NERRS,ioos:station:NOAA.NERRS:apaebwq:1,2017-08-11T12:45:00Z,29.7858,-84.8752,2.17,9.0,1111122 
NERRS,ioos:station:NOAA.NERRS:apaebwq:1,2017-08-11T13:45:00Z,29.7858,-84.8752,2.1,8.9,1111122 
NERRS,ioos:station:NOAA.NERRS:apaebwq:1,2017-08-11T14:45:00Z,29.7858,-84.8752,2.02,8.8,1111122 
NERRS,ioos:station:NOAA.NERRS:apaebwq:1,2017-08-11T15:45:00Z,29.7858,-84.8752,1.97,8.9,1111122 
NERRS,ioos:station:NOAA.NERRS:apaebwq:1,2017-08-11T16:45:00Z,29.7858,-84.8752,1.95,9.2,1111122 
NERRS,ioos:station:NOAA.NERRS:apaebwq:1,2017-08-11T17:45:00Z,29.7858,-84.8752,1.97,9.2,1111122 
NERRS,ioos:station:NOAA.NERRS:apaebwq:1,2017-08-11T18:45:00Z,29.7858,-84.8752,2.05,9.3,1111122 
NERRS,ioos:station:NOAA.NERRS:apaebwq:1,2017-08-11T19:45:00Z,29.7858,-84.8752,2.18,9.2,1111122 
NERRS,ioos:station:NOAA.NERRS:apaebwq:1,2017-08-11T20:45:00Z,29.7858,-84.8752,2.24,8.9,1111122 
NERRS,ioos:station:NOAA.NERRS:apaebwq:1,2017-08-11T21:45:00Z,29.7858,-84.8752,2.26,8.9,1111122 
NERRS,ioos:station:NOAA.NERRS:apaebwq:1,2017-08-11T22:45:00Z,29.7858,-84.8752,2.3,8.7,1111122 
NERRS,ioos:station:NOAA.NERRS:apaebwq:1,2017-08-11T23:45:00Z,29.7858,-84.8752,2.24,8.6,1111122 
NERRS,ioos:station:NOAA.NERRS:apaebwq:1,2017-08-12T00:45:00Z,29.7858,-84.8752,2.11,8.5,1111122 
NERRS,ioos:station:NOAA.NERRS:apaebwq:1,2017-08-12T01:45:00Z,29.7858,-84.8752,1.98,8.4,1111122 
NERRS,ioos:station:NOAA.NERRS:apaebwq:1,2017-08-12T02:45:00Z,29.7858,-84.8752,1.89,8.4,1111122 
NERRS,ioos:station:NOAA.NERRS:apaebwq:1,2017-08-12T03:45:00Z,29.7858,-84.8752,1.81,8.4,1111122 
NERRS,ioos:station:NOAA.NERRS:apaebwq:1,2017-08-12T04:45:00Z,29.7858,-84.8752,1.75,8.3,1111122 
NERRS,ioos:station:NOAA.NERRS:apaebwq:1,2017-08-12T05:45:00Z,29.7858,-84.8752,1.76,7.7,1111122 
NERRS,ioos:station:NOAA.NERRS:apaebwq:1,2017-08-12T06:45:00Z,29.7858,-84.8752,1.82,7.3,1111122 
NERRS,ioos:station:NOAA.NERRS:apaebwq:1,2017-08-12T07:45:00Z,29.7858,-84.8752,1.93,7.1,1111122 
NERRS,ioos:station:NOAA.NERRS:apaebwq:1,2017-08-12T08:45:00Z,29.7858,-84.8752,2.04,6.1,1111122 
NERRS,ioos:station:NOAA.NERRS:apaebwq:1,2017-08-12T09:45:00Z,29.7858,-84.8752,2.16,6.0,1111122 
NERRS,ioos:station:NOAA.NERRS:apaebwq:1,2017-08-12T10:45:00Z,29.7858,-84.8752,2.24,6.2,1111122 
NERRS,ioos:station:NOAA.NERRS:apaebwq:1,2017-08-12T11:45:00Z,29.7858,-84.8752,2.27,6.6,1111122 
NERRS,ioos:station:NOAA.NERRS:apaebwq:1,2017-08-12T12:45:00Z,29.7858,-84.8752,2.22,7.3,1111122 
NERRS,ioos:station:NOAA.NERRS:apaebwq:1,2017-08-12T13:45:00Z,29.7858,-84.8752,2.14,7.3,1111122 
NERRS,ioos:station:NOAA.NERRS:apaebwq:1,2017-08-12T15:45:00Z,29.7858,-84.8752,2.01,6.5,1111122 
NERRS,ioos:station:NOAA.NERRS:apaebwq:1,2017-08-12T16:45:00Z,29.7858,-84.8752,1.9,6.6,1111122 
NERRS,ioos:station:NOAA.NERRS:apaebwq:1,2017-08-12T17:45:00Z,29.7858,-84.8752,1.85,6.6,1111122 
NERRS,ioos:station:NOAA.NERRS:apaebwq:1,2017-08-12T18:45:00Z,29.7858,-84.8752,1.9,6.5,1111122 
NERRS,ioos:station:NOAA.NERRS:apaebwq:1,2017-08-12T19:45:00Z,29.7858,-84.8752,2.0,6.4,1111122 
NERRS,ioos:station:NOAA.NERRS:apaebwq:1,2017-08-12T20:45:00Z,29.7858,-84.8752,2.11,6.3,1111122 
NERRS,ioos:station:NOAA.NERRS:apaebwq:1,2017-08-12T21:45:00Z,29.7858,-84.8752,2.22,6.2,1111122 
NERRS,ioos:station:NOAA.NERRS:apaebwq:1,2017-08-12T22:45:00Z,29.7858,-84.8752,2.27,6.1,1111122 
NERRS,ioos:station:NOAA.NERRS:apaebwq:1,2017-08-12T23:45:00Z,29.7858,-84.8752,2.28,6.1,1111122 
NERRS,ioos:station:NOAA.NERRS:apaebwq:1,2017-08-13T00:45:00Z,29.7858,-84.8752,2.21,6.1,1111122 
NERRS,ioos:station:NOAA.NERRS:apaebwq:1,2017-08-13T01:45:00Z,29.7858,-84.8752,2.11,5.8,1111122 
NERRS,ioos:station:NOAA.NERRS:apaebwq:1,2017-08-13T02:45:00Z,29.7858,-84.8752,2.02,5.7,1111122 
NERRS,ioos:station:NOAA.NERRS:apaebwq:1,2017-08-13T03:45:00Z,29.7858,-84.8752,1.95,5.7,1111122 
NERRS,ioos:station:NOAA.NERRS:apaebwq:1,2017-08-13T04:45:00Z,29.7858,-84.8752,1.9,5.8,1111122 
NERRS,ioos:station:NOAA.NERRS:apaebwq:1,2017-08-13T05:45:00Z,29.7858,-84.8752,1.86,5.7,1111122 
NERRS,ioos:station:NOAA.NERRS:apaebwq:1,2017-08-13T06:45:00Z,29.7858,-84.8752,1.87,5.2,1111122 
NERRS,ioos:station:NOAA.NERRS:apaebwq:1,2017-08-13T07:45:00Z,29.7858,-84.8752,1.95,3.9,1111122 
NERRS,ioos:station:NOAA.NERRS:apaebwq:1,2017-08-13T08:45:00Z,29.7858,-84.8752,2.06,4.2,1111122 
NERRS,ioos:station:NOAA.NERRS:apaebwq:1,2017-08-13T09:45:00Z,29.7858,-84.8752,2.17,3.9,1111122 
NERRS,ioos:station:NOAA.NERRS:apaebwq:1,2017-08-13T10:45:00Z,29.7858,-84.8752,2.26,3.8,1111122 
NERRS,ioos:station:NOAA.NERRS:apaebwq:1,2017-08-13T11:45:00Z,29.7858,-84.8752,2.3,3.9,1111122 
NERRS,ioos:station:NOAA.NERRS:apaebwq:1,2017-08-13T12:45:00Z,29.7858,-84.8752,2.28,4.0,1111122 
NERRS,ioos:station:NOAA.NERRS:apaebwq:1,2017-08-13T13:45:00Z,29.7858,-84.8752,2.22,4.0,1111122 
NERRS,ioos:station:NOAA.NERRS:apaebwq:1,2017-08-13T14:45:00Z,29.7858,-84.8752,2.11,3.7,1111122 
NERRS,ioos:station:NOAA.NERRS:apaebwq:1,2017-08-13T15:45:00Z,29.7858,-84.8752,2.0,3.2,1111122 
NERRS,ioos:station:NOAA.NERRS:apaebwq:1,2017-08-13T16:45:00Z,29.7858,-84.8752,1.92,3.2,1111122 
NERRS,ioos:station:NOAA.NERRS:apaebwq:1,2017-08-13T17:45:00Z,29.7858,-84.8752,1.87,3.4,1111122 
NERRS,ioos:station:NOAA.NERRS:apaebwq:1,2017-08-13T18:45:00Z,29.7858,-84.8752,1.85,2.9,1111122 
NERRS,ioos:station:NOAA.NERRS:apaebwq:1,2017-08-13T19:45:00Z,29.7858,-84.8752,1.89,2.6,1111122 
NERRS,ioos:station:NOAA.NERRS:apaebwq:1,2017-08-13T20:45:00Z,29.7858,-84.8752,1.98,2.5,1111122 
NERRS,ioos:station:NOAA.NERRS:apaebwq:1,2017-08-13T21:45:00Z,29.7858,-84.8752,2.04,2.5,1111122 
NERRS,ioos:station:NOAA.NERRS:apaebwq:1,2017-08-13T22:45:00Z,29.7858,-84.8752,2.12,2.6,1111122 
NERRS,ioos:station:NOAA.NERRS:apaebwq:1,2017-08-13T23:45:00Z,29.7858,-84.8752,2.21,2.5,1111122 
NERRS,ioos:station:NOAA.NERRS:apaebwq:1,2017-08-14T00:45:00Z,29.7858,-84.8752,2.26,2.8,1111122 
NERRS,ioos:station:NOAA.NERRS:apaebwq:1,2017-08-14T01:45:00Z,29.7858,-84.8752,2.23,2.7,1111122 
NERRS,ioos:station:NOAA.NERRS:apaebwq:1,2017-08-14T02:45:00Z,29.7858,-84.8752,2.15,2.6,1111122 
NERRS,ioos:station:NOAA.NERRS:apaebwq:1,2017-08-14T03:45:00Z,29.7858,-84.8752,2.05,2.5,1111122 
NERRS,ioos:station:NOAA.NERRS:apaebwq:1,2017-08-14T04:45:00Z,29.7858,-84.8752,1.99,2.5,1111122 
NERRS,ioos:station:NOAA.NERRS:apaebwq:1,2017-08-14T05:45:00Z,29.7858,-84.8752,1.95,2.4,1111122 
NERRS,ioos:station:NOAA.NERRS:apaebwq:1,2017-08-14T06:45:00Z,29.7858,-84.8752,1.94,2.1,1111122 
NERRS,ioos:station:NOAA.NERRS:apaebwq:1,2017-08-14T07:45:00Z,29.7858,-84.8752,2.0,2.3,1111122 
NERRS,ioos:station:NOAA.NERRS:apaebwq:1,2017-08-14T08:45:00Z,29.7858,-84.8752,2.06,2.3,1111122 
NERRS,ioos:station:NOAA.NERRS:apaebwq:1,2017-08-14T09:45:00Z,29.7858,-84.8752,2.13,2.2,1111122 
NERRS,ioos:station:NOAA.NERRS:apaebwq:1,2017-08-14T10:45:00Z,29.7858,-84.8752,2.22,1.9,1111122 
NERRS,ioos:station:NOAA.NERRS:apaebwq:1,2017-08-14T11:45:00Z,29.7858,-84.8752,2.27,1.9,1111122 
NERRS,ioos:station:NOAA.NERRS:apaebwq:1,2017-08-14T12:45:00Z,29.7858,-84.8752,2.29,1.9,1111122 
NERRS,ioos:station:NOAA.NERRS:apaebwq:1,2017-08-14T13:45:00Z,29.7858,-84.8752,2.26,2.0,1111122 
NERRS,ioos:station:NOAA.NERRS:apaebwq:1,2017-08-14T14:45:00Z,29.7858,-84.8752,2.17,2.1,1111122 
NERRS,ioos:station:NOAA.NERRS:apaebwq:1,2017-08-14T16:45:00Z,29.7858,-84.8752,2.07,1.6,1111122 
NERRS,ioos:station:NOAA.NERRS:apaebwq:1,2017-08-14T17:45:00Z,29.7858,-84.8752,1.94,1.2,1111122 
NERRS,ioos:station:NOAA.NERRS:apaebwq:1,2017-08-14T18:45:00Z,29.7858,-84.8752,1.86,1.1,1111122 
NERRS,ioos:station:NOAA.NERRS:apaebwq:1,2017-08-14T19:45:00Z,29.7858,-84.8752,1.81,1.0,1111122 
NERRS,ioos:station:NOAA.NERRS:apaebwq:1,2017-08-14T20:45:00Z,29.7858,-84.8752,1.82,1.0,1111122 
NERRS,ioos:station:NOAA.NERRS:apaebwq:1,2017-08-14T21:45:00Z,29.7858,-84.8752,1.85,0.9,1111122 
NERRS,ioos:station:NOAA.NERRS:apaebwq:1,2017-08-14T22:45:00Z,29.7858,-84.8752,1.91,0.8,1111122 
NERRS,ioos:station:NOAA.NERRS:apaebwq:1,2017-08-14T23:45:00Z,29.7858,-84.8752,1.99,0.7,1111122 
NERRS,ioos:station:NOAA.NERRS:apaebwq:1,2017-08-15T00:45:00Z,29.7858,-84.8752,2.08,0.7,1111122 
NERRS,ioos:station:NOAA.NERRS:apaebwq:1,2017-08-15T01:45:00Z,29.7858,-84.8752,2.14,0.9,1111122 
NERRS,ioos:station:NOAA.NERRS:apaebwq:1,2017-08-15T02:45:00Z,29.7858,-84.8752,2.13,1.4,1111122 
NERRS,ioos:station:NOAA.NERRS:apaebwq:1,2017-08-15T03:45:00Z,29.7858,-84.8752,2.1,1.9,1111122 
NERRS,ioos:station:NOAA.NERRS:apaebwq:1,2017-08-15T04:45:00Z,29.7858,-84.8752,2.04,1.9,1111122 
NERRS,ioos:station:NOAA.NERRS:apaebwq:1,2017-08-15T05:45:00Z,29.7858,-84.8752,1.99,2.0,1111122 
NERRS,ioos:station:NOAA.NERRS:apaebwq:1,2017-08-15T06:45:00Z,29.7858,-84.8752,1.99,2.1,1111122 
NERRS,ioos:station:NOAA.NERRS:apaebwq:1,2017-08-15T07:45:00Z,29.7858,-84.8752,2.0,2.1,1111122 
NERRS,ioos:station:NOAA.NERRS:apaebwq:1,2017-08-15T08:45:00Z,29.7858,-84.8752,2.01,2.1,1111122 
NERRS,ioos:station:NOAA.NERRS:apaebwq:1,2017-08-15T09:45:00Z,29.7858,-84.8752,2.06,2.0,1111122 
NERRS,ioos:station:NOAA.NERRS:apaebwq:1,2017-08-15T10:45:00Z,29.7858,-84.8752,2.15,1.3,1111122 
NERRS,ioos:station:NOAA.NERRS:apaebwq:1,2017-08-15T11:45:00Z,29.7858,-84.8752,2.25,1.0,1111122 
NERRS,ioos:station:NOAA.NERRS:apaebwq:1,2017-08-15T12:45:00Z,29.7858,-84.8752,2.31,1.1,1111122 
NERRS,ioos:station:NOAA.NERRS:apaebwq:1,2017-08-15T13:45:00Z,29.7858,-84.8752,2.33,1.1,1111122 
NERRS,ioos:station:NOAA.NERRS:apaebwq:1,2017-08-15T14:45:00Z,29.7858,-84.8752,2.26,1.2,1111122 
NERRS,ioos:station:NOAA.NERRS:apaebwq:1,2017-08-15T15:45:00Z,29.7858,-84.8752,2.18,0.8,1111122 
NERRS,ioos:station:NOAA.NERRS:apaebwq:1,2017-08-15T16:45:00Z,29.7858,-84.8752,2.07,0.5,1111122 
NERRS,ioos:station:NOAA.NERRS:apaebwq:1,2017-08-15T18:45:00Z,29.7858,-84.8752,1.88,0.4,1111122 
NERRS,ioos:station:NOAA.NERRS:apaebwq:1,2017-08-15T19:45:00Z,29.7858,-84.8752,1.78,0.4,1111122 
NERRS,ioos:station:NOAA.NERRS:apaebwq:1,2017-08-15T21:45:00Z,29.7858,-84.8752,1.69,0.2,1111122 
NERRS,ioos:station:NOAA.NERRS:apaebwq:1,2017-08-15T22:45:00Z,29.7858,-84.8752,1.74,0.2,1111122 
NERRS,ioos:station:NOAA.NERRS:apaebwq:1,2017-08-15T23:45:00Z,29.7858,-84.8752,1.86,0.1,1111122 
NERRS,ioos:station:NOAA.NERRS:apaebwq:1,2017-08-16T00:45:00Z,29.7858,-84.8752,1.96,0.3,1111122 
NERRS,ioos:station:NOAA.NERRS:apaebwq:1,2017-08-16T01:45:00Z,29.7858,-84.8752,2.05,0.4,1111122 
NERRS,ioos:station:NOAA.NERRS:apaebwq:1,2017-08-16T02:45:00Z,29.7858,-84.8752,2.12,0.4,1111122 
NERRS,ioos:station:NOAA.NERRS:apaebwq:1,2017-08-16T03:45:00Z,29.7858,-84.8752,2.17,0.4,1111122 
NERRS,ioos:station:NOAA.NERRS:apaebwq:1,2017-08-16T04:45:00Z,29.7858,-84.8752,2.17,0.4,1111122 
NERRS,ioos:station:NOAA.NERRS:apaebwq:1,2017-08-16T05:45:00Z,29.7858,-84.8752,2.14,0.4,1111122 
NERRS,ioos:station:NOAA.NERRS:apaebwq:1,2017-08-16T06:45:00Z,29.7858,-84.8752,2.09,0.3,1111122 
NERRS,ioos:station:NOAA.NERRS:apaebwq:1,2017-08-16T07:45:00Z,29.7858,-84.8752,2.04,0.2,1111122 
NERRS,ioos:station:NOAA.NERRS:apaebwq:1,2017-08-16T08:45:00Z,29.7858,-84.8752,2.04,0.2,1111122 
NERRS,ioos:station:NOAA.NERRS:apaebwq:1,2017-08-16T09:45:00Z,29.7858,-84.8752,2.1,0.2,1111122 
NERRS,ioos:station:NOAA.NERRS:apaebwq:1,2017-08-16T10:45:00Z,29.7858,-84.8752,2.14,0.2,1111122 
NERRS,ioos:station:NOAA.NERRS:apaebwq:1,2017-08-16T11:45:00Z,29.7858,-84.8752,2.18,0.3,1111122 
NERRS,ioos:station:NOAA.NERRS:apaebwq:1,2017-08-16T12:45:00Z,29.7858,-84.8752,2.23,0.3,1111122 
NERRS,ioos:station:NOAA.NERRS:apaebwq:1,2017-08-16T13:45:00Z,29.7858,-84.8752,2.29,0.4,1111122 
NERRS,ioos:station:NOAA.NERRS:apaebwq:1,2017-08-16T14:45:00Z,29.7858,-84.8752,2.31,0.8,1111122 
NERRS,ioos:station:NOAA.NERRS:apaebwq:1,2017-08-16T15:45:00Z,29.7858,-84.8752,2.24,0.7,1111122 
NERRS,ioos:station:NOAA.NERRS:apaebwq:1,2017-08-16T16:45:00Z,29.7858,-84.8752,2.13,0.3,1111122 
NERRS,ioos:station:NOAA.NERRS:apaebwq:1,2017-08-16T18:45:00Z,29.7858,-84.8752,1.96,0.2,1111122 
NERRS,ioos:station:NOAA.NERRS:apaebwq:1,2017-08-16T19:45:00Z,29.7858,-84.8752,1.84,0.2,1111122 
NERRS,ioos:station:NOAA.NERRS:apaebwq:1,2017-08-16T20:45:00Z,29.7858,-84.8752,1.78,0.2,1111122 
NERRS,ioos:station:NOAA.NERRS:apaebwq:1,2017-08-16T21:45:00Z,29.7858,-84.8752,1.74,0.1,1111122 
NERRS,ioos:station:NOAA.NERRS:apaebwq:1,2017-08-17T03:45:00Z,29.7858,-84.8752,2.1,0.2,1111122 
NERRS,ioos:station:NOAA.NERRS:apaebwq:1,2017-08-17T04:45:00Z,29.7858,-84.8752,2.17,0.2,1111122 
NERRS,ioos:station:NOAA.NERRS:apaebwq:1,2017-08-17T05:45:00Z,29.7858,-84.8752,2.22,0.7,1111122 
NERRS,ioos:station:NOAA.NERRS:apaebwq:1,2017-08-17T06:45:00Z,29.7858,-84.8752,2.21,0.7,1111122 
NERRS,ioos:station:NOAA.NERRS:apaebwq:1,2017-08-17T07:45:00Z,29.7858,-84.8752,2.17,1.2,1111122 
NERRS,ioos:station:NOAA.NERRS:apaebwq:1,2017-08-17T08:45:00Z,29.7858,-84.8752,2.1,1.3,1111122 
NERRS,ioos:station:NOAA.NERRS:apaebwq:1,2017-08-17T09:45:00Z,29.7858,-84.8752,2.09,1.5,1111122 
NERRS,ioos:station:NOAA.NERRS:apaebwq:1,2017-08-17T10:45:00Z,29.7858,-84.8752,2.1,1.6,1111122 
NERRS,ioos:station:NOAA.NERRS:apaebwq:1,2017-08-17T11:45:00Z,29.7858,-84.8752,2.13,1.6,1111122 
NERRS,ioos:station:NOAA.NERRS:apaebwq:1,2017-08-17T12:45:00Z,29.7858,-84.8752,2.18,1.5,1111122 
NERRS,ioos:station:NOAA.NERRS:apaebwq:1,2017-08-17T13:45:00Z,29.7858,-84.8752,2.25,1.6,1111122 
NERRS,ioos:station:NOAA.NERRS:apaebwq:1,2017-08-17T14:45:00Z,29.7858,-84.8752,2.3,1.8,1111122 
NERRS,ioos:station:NOAA.NERRS:apaebwq:1,2017-08-17T15:45:00Z,29.7858,-84.8752,2.3,1.9,1111122 
NERRS,ioos:station:NOAA.NERRS:apaebwq:1,2017-08-17T16:45:00Z,29.7858,-84.8752,2.22,1.8,1111122 
NERRS,ioos:station:NOAA.NERRS:apaebwq:1,2017-08-17T17:45:00Z,29.7858,-84.8752,2.13,1.7,1111122 
NERRS,ioos:station:NOAA.NERRS:apaebwq:1,2017-08-17T18:45:00Z,29.7858,-84.8752,2.02,1.7,1111122 
NERRS,ioos:station:NOAA.NERRS:apaebwq:1,2017-08-17T19:45:00Z,29.7858,-84.8752,1.94,1.6,1111122 
NERRS,ioos:station:NOAA.NERRS:apaebwq:1,2017-08-17T20:45:00Z,29.7858,-84.8752,1.84,1.2,1111122 
NERRS,ioos:station:NOAA.NERRS:apaebwq:1,2017-08-17T21:45:00Z,29.7858,-84.8752,1.74,0.6,1111122 
NERRS,ioos:station:NOAA.NERRS:apaebwq:1,2017-08-17T23:45:00Z,29.7858,-84.8752,1.61,0.1,1111122 
NERRS,ioos:station:NOAA.NERRS:apaebwq:1,2017-08-18T00:45:00Z,29.7858,-84.8752,1.61,0.1,1111122 
NERRS,ioos:station:NOAA.NERRS:apaebwq:1,2017-08-18T01:45:00Z,29.7858,-84.8752,1.71,0.1,1111122 
NERRS,ioos:station:NOAA.NERRS:apaebwq:1,2017-08-18T02:45:00Z,29.7858,-84.8752,1.82,0.1,1111122 
NERRS,ioos:station:NOAA.NERRS:apaebwq:1,2017-08-18T03:45:00Z,29.7858,-84.8752,1.95,0.2,1111122 
NERRS,ioos:station:NOAA.NERRS:apaebwq:1,2017-08-18T04:45:00Z,29.7858,-84.8752,2.05,0.3,1111122 
NERRS,ioos:station:NOAA.NERRS:apaebwq:1,2017-08-18T05:45:00Z,29.7858,-84.8752,2.16,1.0,1111122 
NERRS,ioos:station:NOAA.NERRS:apaebwq:1,2017-08-18T06:45:00Z,29.7858,-84.8752,2.23,0.9,1111122 
NERRS,ioos:station:NOAA.NERRS:apaebwq:1,2017-08-18T07:45:00Z,29.7858,-84.8752,2.24,1.3,1111122 
NERRS,ioos:station:NOAA.NERRS:apaebwq:1,2017-08-18T08:45:00Z,29.7858,-84.8752,2.21,1.6,1111122 
NERRS,ioos:station:NOAA.NERRS:apaebwq:1,2017-08-18T09:45:00Z,29.7858,-84.8752,2.13,1.7,1111122 
NERRS,ioos:station:NOAA.NERRS:apaebwq:1,2017-08-18T10:45:00Z,29.7858,-84.8752,2.06,1.7,1111122 
NERRS,ioos:station:NOAA.NERRS:apaebwq:1,2017-08-18T11:45:00Z,29.7858,-84.8752,2.05,1.7,1111122 
NERRS,ioos:station:NOAA.NERRS:apaebwq:1,2017-08-18T12:45:00Z,29.7858,-84.8752,2.08,2.0,1111122 
NERRS,ioos:station:NOAA.NERRS:apaebwq:1,2017-08-18T13:45:00Z,29.7858,-84.8752,2.12,2.0,1111122 
NERRS,ioos:station:NOAA.NERRS:apaebwq:1,2017-08-18T14:45:00Z,29.7858,-84.8752,2.17,1.7,1111122 
NERRS,ioos:station:NOAA.NERRS:apaebwq:1,2017-08-18T15:45:00Z,29.7858,-84.8752,2.25,1.5,1111122 
NERRS,ioos:station:NOAA.NERRS:apaebwq:1,2017-08-18T16:45:00Z,29.7858,-84.8752,2.29,1.5,1111122 
NERRS,ioos:station:NOAA.NERRS:apaebwq:1,2017-08-18T17:45:00Z,29.7858,-84.8752,2.27,1.6,1111122 
NERRS,ioos:station:NOAA.NERRS:apaebwq:1,2017-08-18T18:45:00Z,29.7858,-84.8752,2.2,1.7,1111122 
NERRS,ioos:station:NOAA.NERRS:apaebwq:1,2017-08-18T19:45:00Z,29.7858,-84.8752,2.09,1.5,1111122 
NERRS,ioos:station:NOAA.NERRS:apaebwq:1,2017-08-19T02:45:00Z,29.7858,-84.8752,1.67,0.2,1111122 
NERRS,ioos:station:NOAA.NERRS:apaebwq:1,2017-08-19T03:45:00Z,29.7858,-84.8752,1.8,0.3,1111122 
NERRS,ioos:station:NOAA.NERRS:apaebwq:1,2017-08-19T04:45:00Z,29.7858,-84.8752,1.94,0.3,1111122 
NERRS,ioos:station:NOAA.NERRS:apaebwq:1,2017-08-19T05:45:00Z,29.7858,-84.8752,2.07,0.4,1111122 
NERRS,ioos:station:NOAA.NERRS:apaebwq:1,2017-08-19T06:45:00Z,29.7858,-84.8752,2.18,1.0,1111122 
NERRS,ioos:station:NOAA.NERRS:apaebwq:1,2017-08-19T08:45:00Z,29.7858,-84.8752,2.23,2.3,1111122 
NERRS,ioos:station:NOAA.NERRS:apaebwq:1,2017-08-19T09:45:00Z,29.7858,-84.8752,2.18,2.4,1111122 
NERRS,ioos:station:NOAA.NERRS:apaebwq:1,2017-08-19T10:45:00Z,29.7858,-84.8752,2.11,2.4,1111122 
NERRS,ioos:station:NOAA.NERRS:apaebwq:1,2017-08-19T11:45:00Z,29.7858,-84.8752,2.21,2.2,1111122 
NERRS,ioos:station:NOAA.NERRS:apaebwq:1,2017-08-19T12:45:00Z,29.7858,-84.8752,2.13,2.0,1111122 
NERRS,ioos:station:NOAA.NERRS:apaebwq:1,2017-08-19T13:45:00Z,29.7858,-84.8752,2.07,2.0,1111122 
NERRS,ioos:station:NOAA.NERRS:apaebwq:1,2017-08-19T14:45:00Z,29.7858,-84.8752,2.1,2.0,1111122 
NERRS,ioos:station:NOAA.NERRS:apaebwq:1,2017-08-19T15:45:00Z,29.7858,-84.8752,2.24,1.9,1111122 
NERRS,ioos:station:NOAA.NERRS:apaebwq:1,2017-08-19T16:45:00Z,29.7858,-84.8752,2.36,2.1,1111122 
NERRS,ioos:station:NOAA.NERRS:apaebwq:1,2017-08-19T17:45:00Z,29.7858,-84.8752,2.36,2.2,1111122 
NERRS,ioos:station:NOAA.NERRS:apaebwq:1,2017-08-19T18:45:00Z,29.7858,-84.8752,2.24,2.0,1111122 
NERRS,ioos:station:NOAA.NERRS:apaebwq:1,2017-08-19T19:45:00Z,29.7858,-84.8752,2.13,1.6,1111122 
NERRS,ioos:station:NOAA.NERRS:apaebwq:1,2017-08-19T20:45:00Z,29.7858,-84.8752,2.04,1.3,1111122 
NERRS,ioos:station:NOAA.NERRS:apaebwq:1,2017-08-19T21:45:00Z,29.7858,-84.8752,1.94,1.0,1111122 